Regional Weather Roundup
Issued by NWS

Home | Current Version | Previous Version | Graphics & Text | Print | Product List | Glossary On
Versions: 1 2 3 4 5 6 7 8 9 10 11 12 13 14 15 16 17 18 19 20 21 22 23 24 25 26 27 28 29 30 31 32 33 34 35 36 37 38 39 40 41 42 43 44 45 46 47 48 49 50
000
ASUS43 KFSD 290010
RWRSD

WEATHER ROUNDUP FOR SOUTH DAKOTA
NATIONAL WEATHER SERVICE SIOUX FALLS SD
700 PM CDT THU APR 28 2016

NOTE: "FAIR" INDICATES FEW OR NO CLOUDS BELOW 12,000 FEET WITH NO
SIGNIFICANT WEATHER AND/OR OBSTRUCTIONS TO VISIBILITY.


SDZ001>005-009-010-012>017-290100-
NORTHWEST AND NORTH CENTRAL SOUTH DAKOTA

CITY           SKY/WX    TMP DP  RH WIND       PRES   REMARKS
BUFFALO          N/A     39  34  82 E5        30.05R
FAITH            N/A     37  29  72 W6        30.09R
MOBRIDGE       CLOUDY    52  33  48 E9        30.05R
$$

SDZ012>016-024>037-041>051-057-063-072>074-290100-
SOUTHWEST AND SOUTH CENTRAL SOUTH DAKOTA

CITY           SKY/WX    TMP DP  RH WIND       PRES   REMARKS
RAPID CTY ARPT CLOUDY    38  34  85 NE10      30.09R
PIERRE         CLOUDY    47  36  65 NE9       30.07R
CUSTER         CLOUDY    32  28  85 NE7       30.03R WCI  26
ELLSWORTH AFB  CLOUDY    37  37 100 NE7       30.09
PHILIP         CLOUDY    43  35  73 NE6       30.10R
PINE RIDGE     CLOUDY    40  34  79 E5        30.07R
WINNER         CLOUDY    45  37  73 N3        30.07R
$$

SDZ004>011-016>023-039-040-290100-
NORTHEAST SOUTH DAKOTA

CITY           SKY/WX    TMP DP  RH WIND       PRES   REMARKS
ABERDEEN       CLOUDY    51  34  52 E13       30.07R
WATERTOWN      CLOUDY    38  35  89 NE9       30.07R FOG
BROOKINGS      CLOUDY    36  34  92 NE8       30.07R
SISSETON         N/A     44  38  79 S8        30.09R
$$

SDZ017-020-022-023-036>040-048>070-290100-
SOUTHEAST SOUTH DAKOTA

CITY           SKY/WX    TMP DP  RH WIND       PRES   REMARKS
SIOUX FALLS    CLOUDY    41  35  79 NE8       30.06R
HURON          CLOUDY    41  34  76 E8        30.09R
CHAMBERLAIN    CLOUDY    46  40  79 NE7       30.07R
MITCHELL       CLOUDY    43  38  82 NE8       30.08R
YANKTON        CLOUDY    43  37  81 N7        30.06R
$$

ABBREVIATIONS USED IN REMARKS
   TC - TEMPERATURE IN CELSIUS
  WCI - WIND CHILL INDEX
   HX - HEAT INDEX
  VSB - VISIBILITY





USA.gov is the U.S. government's official web portal to all federal, state and local government web resources and services.